FLOCK 4S-27 (47495 NORAD) Tracking and Keplerian Element Data

This shows tracking and keplerian element data for the satellite.

Feedback or suggestion? Click here.




ElementValue
Catalog47495
NameFLOCK 4S-27
Epoch Orbit1168
Epoch Day99.88880745
Epoch Year2021
RAAN162.2611
Inclination97.4931
Eccentricity0.0010284
Argument of Perigee345.3697
Mean Anonmoly14.7234
Mean Motion15.12576048
Decay Rate1.308E-05
L11 47495U 21006CL 21099.88880745 .00001308 00000-0 78601-4 0 9995
L22 47495 97.4931 162.2611 0010284 345.3697 14.7234 15.12576048 11681

Live tracking and technical data element details for FLOCK 4S-27 (NORAD 47495). FLOCK 4S-27 can be tracked NOW for your location showing map with azimuth and elevation plus other details from your city location.

Track the satellite on the map from your city or location and see movement details for azimuth, elevation, latitude, longitude, range, height, and movement on the map or in text.







IsCatalogInMostPopularTable: catalog: 47495, numindb: 13
Update: records affected: 1



GetName: 47495 FLOCK 4S-27

Hit Count: updated at: Sat, 10 Apr 2021 19:39:06 GMT